Regional Weather Roundup
Issued by NWS

Home | Current Version | Previous Version | Text Only | Print | Product List | Glossary Off
Versions: 1 2 3 4 5 6 7 8 9 10 11 12 13 14 15 16 17 18 19 20 21 22 23 24 25 26 27 28 29 30 31 32 33 34 35 36 37 38 39 40 41 42 43 44 45 46 47 48 49 50

000
ASUS43 KDMX 081908
RWRIA

WEATHER ROUNDUP FOR IOWA
NATIONAL WEATHER SERVICE DES MOINES IA
100 PM CST MON FEB 08 2016

NOTE: "FAIR" INDICATES FEW OR NO CLOUDS BELOW 12,000 FEET WITH NO
SIGNIFICANT WEATHER AND/OR OBSTRUCTIONS TO VISIBILITY.

* - THESE STATIONS ARE NOT NWS STATIONS...THUS NOT UNDER NWS
QUALITY CONTROL.  THEY ALSO DO NOT REPORT WEATHER SUCH
AS PRECIPITATION OR FOG.

IAZ001>003-012>014-020>022-031>034-043>046-082000-
   NORTHWEST IOWA

CITY           SKY/WX    TMP DP  RH WIND       PRES   REMARKS
CARROLL *      CLOUDY    18  10  73 N36G46    30.02F WCI  -3
CHEROKEE *     LGT SNOW  19  14  79 N23G35    30.06F WCI   2
DENISON *      LGT SNOW  21  16  79 N20G35    30.04F WCI   6
LE MARS *      CLOUDY    25  18  74 N22G33    30.10F WCI  10
ORANGE CITY *    N/A     19  18  93 N16G25    30.06F WCI   5
SHELDON *      SNOW      18  14  86 N31       30.04F VSB 1/4 WCI  -2
SIOUX CITY     CLOUDY    28  16  60 N32G43    30.08F WCI  12
SPENCER        LGT SNOW  15   8  73 N33G44    30.02F VSB 3/4 WCI  -6
STORM LAKE *   LGT SNOW  18  14  86 NW33G39   30.01F WCI  -3
$$

IAZ055>058-069>071-079>083-090>094-082000-
   SOUTHWEST IOWA

CITY           SKY/WX    TMP DP  RH WIND       PRES   REMARKS
ATLANTIC *     LGT SNOW  23  16  74 NW29G37   30.05F WCI   6
AUDUBON *      CLOUDY    19  16  86 NW18G30   30.03F WCI   4
CLARINDA *     CLOUDY    27  18  69 NW21G38   30.08F WCI  13
COUNCIL BLFS * CLOUDY    27  16  63 NW29G38   30.07F WCI  11
CRESTON *      LGT SNOW  21  14  73 NW35G41   30.00F WCI   2
HARLAN  *      FLURRIES  21  16  79 N29G35    30.09F WCI   3
LAMONI         FLURRIES  23  12  62 NW29G40   29.98F WCI   6
RED OAK *      CLOUDY    27  18  69 N26G35    30.08F WCI  11
SHENANDOAH *   CLOUDY    28  18  64 N26G36    30.09F WCI  13
$$

IAZ047>049-059>061-072>074-084-082000-
   CENTRAL IOWA

CITY           SKY/WX    TMP DP  RH WIND       PRES   REMARKS
AMES           LGT SNOW  17   9  70 NW22G31   29.97F WCI   0
ANKENY *       CLOUDY    19  10  68 NW22      29.98S WCI   3
BOONE *        CLOUDY    18   7  62 NW26G37   29.95F WCI  -1
CHARITON *     FLURRIES  19   9  63 NW30G45   29.96S WCI   0
DES MOINES     CLOUDY    19   8  62 NW24G39   29.98R BLWGSNOWWCI   2
GRINNELL*      LGT SNOW  16  10  79 NW25G32   29.91S WCI  -3
KNOXVILLE *    CLOUDY    18   7  62 NW28G40   29.94S WCI  -1
MARSHALLTOWN   LGT SNOW  15   8  73 NW24G36   29.92S WCI  -4
NEWTON *       LGT SNOW  16  10  79 NW22G33   29.94S WCI  -2
PELLA *        LGT SNOW  18  10  73 NW26G32   29.96S WCI  -1
$$

IAZ004>006-015-016-023>025-035-036-082000-
   NORTH CENTRAL IOWA

CITY           SKY/WX    TMP DP  RH WIND       PRES   REMARKS
ALGONA *       LGT SNOW  16   9  73 NW36G44   29.96S WCI  -6
CLARION *      LGT SNOW  14   9  79 NW30G43   29.95S WCI  -7
ESTHERVILLE    BLWGSNOW  13   8  81 NW38G45   29.98F VSB 1/2 WCI -10
FORT DODGE *   CLOUDY    18   9  68 NW15G23   29.99F WCI   3
MASON CITY     LGT SNOW  13   8  81 NW29      29.92F VSB 1   WCI  -8
FOREST CITY *  LGT SNOW  14   9  79 NW25G35   29.92F WCI  -5
WEBSTER CITY * LGT SNOW  16  10  79 NW29G38   29.95S VSB 3/4 WCI  -4
IOWA FALLS *   CLOUDY    15  10  80 NW29G36   29.93S WCI  -5
$$

IAZ007>011-017>019-026>030-037>042-050>054-066-082000-
   NORTHEAST IOWA

CITY           SKY/WX    TMP DP  RH WIND       PRES   REMARKS
CEDAR RAPIDS   LGT SNOW  17  12  80 NW23G32   29.84F WCI  -1
CHARLES CITY * LGT SNOW  14  10  85 NW26      29.88S WCI  -6
CLINTON *      FLURRIES  22  15  75 NW21G26   29.78S WCI   6
DECORAH *      PTSUNNY   16   7  67 NW21G32   29.81S WCI  -2
DUBUQUE        CLOUDY    20  13  74 NW16G24   29.76S WCI   6
MONTICELLO *   FLURRIES  19  14  79 NW16G23   29.80S WCI   5
OELWEIN *      CLOUDY    14   9  79 NW28      29.84S HAZE    WCI  -6
WATERLOO       LGT SNOW  15   8  73 NW25      29.88S WCI  -4
$$

IAZ064-065-067-068-078-082000-
   EAST CENTRAL IOWA

CITY           SKY/WX    TMP DP  RH WIND       PRES   REMARKS
DAVENPORT      LGT SNOW  20  14  77 NW22G29   29.80R WCI   3
IOWA CITY      FLURRIES  18  10  71 NW22G33   29.88S WCI   1
MT. PLEASANT * FLURRIES  21  12  68 NW18G30   29.87S WCI   6
MUSCATINE *    FLURRIES  19  12  73 NW21G31   29.86S WCI   3
QUAD CITIES    LGT SNOW  21  15  78 W15       29.80S VSB 1   WCI   8
$$

IAZ062-063-075>077-085>089-095>099-082000-
   SOUTHEAST IOWA

CITY           SKY/WX    TMP DP  RH WIND       PRES   REMARKS
BURLINGTON     LGT SNOW  19  12  74 NW18G26   29.85S WCI   4
FAIRFIELD *    LGT SNOW  19  10  68 NW23G35   29.88S WCI   2
FORT MADISON * FLURRIES  19  12  73 NW22G28   29.87S WCI   3
KEOKUK *       FLURRIES  21  10  63 NW18G32   29.88F WCI   6
OSKALOOSA *    LGT SNOW  18  12  79 NW29G36   29.92S WCI  -2
CENTERVILLE *    N/A    N/A N/A N/A MISG        N/A
OTTUMWA        LGT SNOW  18  11  74 NW26G39   29.92S WCI  -1
WASHINGTON *   FLURRIES  19  12  73 NW25      29.89S WCI   2
$$

ABBREVIATIONS USED IN REMARKS
   TC - TEMPERATURES IN CELSIUS
  WCI - WIND CHILL INDEX
   HX - HEAT INDEX
  VSB - VISIBILITY
$$




USA.gov is the U.S. government's official web portal to all federal, state and local government web resources and services.